Murray, KY

2:30 AM CDT on July 27, 2017 (GMT -0500)
Kyle-Oakley

Weather History for KCEY - January, 2012

Change the Weather History Date:

Wednesday, January 4, 2012

  Actual Average (KPAH) Record (KPAH)
Temperature  
Mean Temperature 38 °F -  
Max Temperature 50 °F 42 °F 70 °F (1939)
Min Temperature 26 °F 24 °F 2 °F (1959)
Degree Days  
Heating Degree Days 27    
Moisture  
Dew Point 17 °F    
Average Humidity 44    
Maximum Humidity 65    
Minimum Humidity 37    
Precipitation  
Precipitation 0.00 in - - ()
Sea Level Pressure  
Sea Level Pressure 30.18 in    
Wind  
Wind Speed 10 mph (SSW)    
Max Wind Speed 17 mph    
Max Gust Speed 23 mph    
Visibility 10 miles    
Events      
Averages and records for this station are not official NWS values.
T = Trace of Precipitation, MM = Missing Value Source: NWS Daily Summary

Daily Weather History Graph

Daily Weather History Graph

Search for Another Location

Airport or City:

Trip Planner

Search our weather history database for the weather conditions in past years. The results will help you decide how hot, cold, wet, or windy it might be!

Date:

Astronomy

Jan. 04, 2012 Rise Set
Actual Time 7:06 AM CST 4:50 PM CST
Civil Twilight 6:37 AM CST 5:19 PM CST
Nautical Twilight 6:05 AM CST 5:51 PM CST
Astronomical Twilight 5:33 AM CST 6:22 PM CST
Moon 1:12 PM CST (1/4) 2:55 AM CST (1/4)
Length of Visible Light 10h 41m
Length of Day
9h 44m
Waxing Gibbous, 81% of the Moon is Illuminated
Jan 4
Waxing Gibbous
Jan 9
Full
Jan 16
Last Quarter
Jan 23
New
Jan 30
First Quarter

Hourly Weather History & Observations

Time (CST) Temp. Windchill Dew Point Humidity Pressure Visibility Wind Dir Wind Speed Gust Speed Precip Events Conditions
12:15 AM 26.6 °F 20.0 °F 8.6 °F 47% 30.30 in 10.0 mi SSE 5.8 mph - N/A   Clear
12:35 AM 26.6 °F 19.1 °F 8.6 °F 47% 30.30 in 10.0 mi SSE 6.9 mph - N/A   Clear
12:55 AM 26.6 °F 17.5 °F 8.6 °F 47% 30.29 in 10.0 mi South 9.2 mph - N/A   Clear
1:15 AM 26.6 °F 17.5 °F 8.6 °F 47% 30.28 in 10.0 mi South 9.2 mph - N/A   Clear
1:35 AM 28.4 °F 20.4 °F 8.6 °F 43% 30.28 in 10.0 mi South 8.1 mph - N/A   Clear
1:55 AM 28.4 °F 19.1 °F 8.6 °F 43% 30.27 in 10.0 mi South 10.4 mph - N/A   Clear
2:15 AM 28.4 °F 19.1 °F 8.6 °F 43% 30.26 in 10.0 mi South 10.4 mph 18.4 mph N/A   Clear
2:35 AM 28.4 °F 19.1 °F 8.6 °F 43% 30.24 in 10.0 mi South 10.4 mph 17.3 mph N/A   Clear
2:55 AM 30.2 °F 20.8 °F 8.6 °F 40% 30.23 in 10.0 mi South 11.5 mph 18.4 mph N/A   Partly Cloudy
3:15 AM 30.2 °F 21.3 °F 8.6 °F 40% 30.23 in 10.0 mi South 10.4 mph - N/A   Partly Cloudy
3:35 AM 30.2 °F 20.8 °F 8.6 °F 40% 30.22 in 10.0 mi South 11.5 mph 19.6 mph N/A   Clear
3:55 AM 30.2 °F 21.3 °F 8.6 °F 40% 30.22 in 10.0 mi South 10.4 mph 21.9 mph N/A   Clear
4:15 AM 30.2 °F 20.8 °F 8.6 °F 40% 30.22 in 10.0 mi South 11.5 mph 16.1 mph N/A   Clear
4:35 AM 32.0 °F 23.0 °F 8.6 °F 38% 30.22 in 10.0 mi South 11.5 mph 17.3 mph N/A   Clear
4:55 AM 32.0 °F 23.6 °F 10.4 °F 41% 30.21 in 10.0 mi South 10.4 mph 20.7 mph N/A   Clear
5:15 AM 30.2 °F 20.8 °F 10.4 °F 44% 30.21 in 10.0 mi South 11.5 mph 18.4 mph N/A   Clear
5:35 AM 32.0 °F 23.6 °F 10.4 °F 41% 30.21 in 10.0 mi South 10.4 mph 20.7 mph N/A   Clear
5:55 AM 30.2 °F 21.3 °F 10.4 °F 44% 30.20 in 10.0 mi South 10.4 mph 18.4 mph N/A   Clear
6:15 AM 30.2 °F 21.3 °F 10.4 °F 44% 30.20 in 10.0 mi South 10.4 mph 18.4 mph N/A   Clear
6:35 AM 30.2 °F 20.8 °F 10.4 °F 44% 30.19 in 10.0 mi South 11.5 mph 18.4 mph N/A   Clear
6:55 AM 30.2 °F 21.9 °F 10.4 °F 44% 30.19 in 10.0 mi South 9.2 mph - N/A   Clear
7:15 AM 32.0 °F 24.2 °F 10.4 °F 41% 30.19 in 10.0 mi South 9.2 mph 18.4 mph N/A   Clear
7:35 AM 32.0 °F 24.2 °F 12.2 °F 44% 30.20 in 10.0 mi South 9.2 mph - N/A   Clear
7:55 AM 32.0 °F 24.2 °F 12.2 °F 44% 30.19 in 10.0 mi South 9.2 mph - N/A   Clear
8:15 AM 32.0 °F 23.0 °F 12.2 °F 44% 30.20 in 10.0 mi SSW 11.5 mph 17.3 mph N/A   Clear
8:35 AM 33.8 °F 25.8 °F 14.0 °F 44% 30.21 in 10.0 mi SSW 10.4 mph - N/A   Clear
8:55 AM 35.6 °F 27.5 °F 14.0 °F 41% 30.20 in 10.0 mi SSW 11.5 mph 19.6 mph N/A   Clear
9:15 AM 37.4 °F 28.9 °F 14.0 °F 38% 30.20 in 10.0 mi SSW 13.8 mph 19.6 mph N/A   Clear
9:35 AM 37.4 °F 29.8 °F 15.8 °F 41% 30.20 in 10.0 mi SSW 11.5 mph 21.9 mph N/A   Clear
9:55 AM 39.2 °F 30.5 °F 17.6 °F 42% 30.19 in 10.0 mi SSW 16.1 mph 21.9 mph N/A   Clear
10:15 AM 41.0 °F 32.5 °F 17.6 °F 39% 30.18 in 10.0 mi SSW 17.3 mph 23.0 mph N/A   Clear
10:35 AM 42.8 °F 35.1 °F 19.4 °F 39% 30.16 in 10.0 mi SSW 16.1 mph 23.0 mph N/A   Clear
10:55 AM 44.6 °F 38.4 °F 19.4 °F 37% 30.16 in 10.0 mi SSW 12.7 mph 20.7 mph N/A   Clear
11:15 AM 44.6 °F 37.2 °F 19.4 °F 37% 30.15 in 10.0 mi SW 17.3 mph 20.7 mph N/A   Clear
11:35 AM 46.4 °F 40.4 °F 21.2 °F 37% 30.14 in 10.0 mi WSW 13.8 mph 17.3 mph N/A   Clear
11:55 AM 46.4 °F 40.7 °F 21.2 °F 37% 30.13 in 10.0 mi SW 12.7 mph - N/A   Clear
12:15 PM 46.4 °F 39.8 °F 23.0 °F 40% 30.13 in 10.0 mi SW 16.1 mph 21.9 mph N/A   Clear
12:35 PM 48.2 °F - 23.0 °F 37% 30.12 in 10.0 mi SW 15.0 mph 21.9 mph N/A   Clear
12:55 PM 48.2 °F - 23.0 °F 37% 30.11 in 10.0 mi SW 15.0 mph 21.9 mph N/A   Clear
1:15 PM 48.2 °F - 24.8 °F 40% 30.10 in 10.0 mi WSW 17.3 mph 21.9 mph N/A   Clear
1:35 PM 48.2 °F - 24.8 °F 40% 30.09 in 10.0 mi SW 13.8 mph - N/A   Clear
1:55 PM 48.2 °F - 24.8 °F 40% 30.10 in 10.0 mi SW 15.0 mph - N/A   Clear
2:35 PM 50.0 °F - 26.6 °F 40% 30.09 in 10.0 mi SW 12.7 mph - N/A   Clear
2:55 PM 48.2 °F - 26.6 °F 43% 30.10 in 10.0 mi SW 13.8 mph - N/A   Clear
3:15 PM 48.2 °F - 26.6 °F 43% 30.11 in 10.0 mi SW 15.0 mph 20.7 mph N/A   Clear
3:35 PM 48.2 °F - 26.6 °F 43% 30.11 in 10.0 mi SW 13.8 mph - N/A   Clear
3:55 PM 46.4 °F 40.1 °F 28.4 °F 50% 30.12 in 10.0 mi WSW 15.0 mph - N/A   Clear
4:15 PM 46.4 °F 41.5 °F 28.4 °F 50% 30.13 in 10.0 mi WSW 10.4 mph - N/A   Clear
4:35 PM 44.6 °F 39.7 °F 28.4 °F 53% 30.14 in 10.0 mi WSW 9.2 mph - N/A   Clear
4:55 PM 42.8 °F 38.0 °F 28.4 °F 57% 30.15 in 10.0 mi WSW 8.1 mph - N/A   Clear
5:15 PM 41.0 °F 36.4 °F 28.4 °F 61% 30.15 in 10.0 mi WSW 6.9 mph - N/A   Clear
5:35 PM 41.0 °F 37.1 °F 28.4 °F 61% 30.17 in 10.0 mi SW 5.8 mph - N/A   Clear
5:55 PM 41.0 °F 37.1 °F 28.4 °F 61% 30.17 in 10.0 mi SW 5.8 mph - N/A   Clear
6:15 PM 39.2 °F 35.9 °F 28.4 °F 65% 30.18 in 10.0 mi SW 4.6 mph - N/A   Clear
6:35 PM 39.2 °F 37.0 °F 28.4 °F 65% 30.18 in 10.0 mi SW 3.5 mph - N/A   Clear
6:55 PM 39.2 °F 35.0 °F 28.4 °F 65% 30.19 in 10.0 mi WSW 5.8 mph - N/A   Clear
7:15 PM 39.2 °F 35.0 °F 28.4 °F 65% 30.19 in 10.0 mi SW 5.8 mph - N/A   Clear
7:35 PM 39.2 °F 34.2 °F 28.4 °F 65% 30.19 in 10.0 mi SW 6.9 mph - N/A   Clear
7:55 PM 37.4 °F 32.1 °F 28.4 °F 70% 30.19 in 10.0 mi SW 6.9 mph - N/A   Clear
8:15 PM 39.2 °F 33.0 °F 28.4 °F 65% 30.19 in 10.0 mi SW 9.2 mph - N/A   Clear
8:35 PM 37.4 °F 31.4 °F 28.4 °F 70% 30.19 in 10.0 mi SW 8.1 mph - N/A   Clear
8:55 PM 37.4 °F 31.4 °F 28.4 °F 70% 30.20 in 10.0 mi WSW 8.1 mph - N/A   Clear
9:15 PM 37.4 °F 30.8 °F 28.4 °F 70% 30.20 in 10.0 mi WSW 9.2 mph - N/A   Clear
9:35 PM 37.4 °F 31.4 °F 28.4 °F 70% 30.20 in 10.0 mi WSW 8.1 mph - N/A   Clear
9:55 PM 37.4 °F 31.4 °F 28.4 °F 70% 30.20 in 10.0 mi WSW 8.1 mph - N/A   Clear
10:15 PM 37.4 °F 31.4 °F 28.4 °F 70% 30.21 in 10.0 mi WSW 8.1 mph - N/A   Clear
10:35 PM 37.4 °F 31.4 °F 28.4 °F 70% 30.20 in 10.0 mi West 8.1 mph - N/A   Clear
10:55 PM 37.4 °F 32.1 °F 28.4 °F 70% 30.20 in 10.0 mi WSW 6.9 mph - N/A   Clear
11:15 PM 35.6 °F 30.7 °F 28.4 °F 75% 30.20 in 10.0 mi WSW 5.8 mph - N/A   Clear
11:35 PM 35.6 °F 30.7 °F 28.4 °F 75% 30.20 in 10.0 mi West 5.8 mph - N/A   Clear
11:55 PM 35.6 °F 32.8 °F 28.4 °F 75% 30.19 in 10.0 mi WSW 3.5 mph - N/A   Clear